www.pogodaiklimat.ru
ПОГОДА в Морхеде
Время
и дата
23:35 12.04
23:55 12.04
00:15 13.04
00:35 13.04
00:55 13.04
01:15 13.04
01:35 13.04
01:55 13.04
02:15 13.04
02:35 13.04
02:55 13.04
03:15 13.04
03:35 13.04
03:55 13.04
04:15 13.04
04:35 13.04
04:55 13.04
05:15 13.04
05:35 13.04
05:55 13.04
06:15 13.04
06:35 13.04
06:55 13.04
07:15 13.04
07:35 13.04
07:55 13.04
08:15 13.04
08:35 13.04
08:55 13.04
09:15 13.04
09:35 13.04
09:55 13.04
10:15 13.04
10:35 13.04
10:55 13.04
11:15 13.04
11:35 13.04
11:55 13.04
12:15 13.04
12:35 13.04
12:55 13.04
13:15 13.04
13:35 13.04
13:55 13.04
14:15 13.04
14:35 13.04
14:55 13.04
15:15 13.04
Ветер
(напр.,м/с)
Видим. Явления Облачность Т
(С)
Тd
(С)
f
(%)
Тe
(С)
Тes
(С)
Комфортность P
(гПа)
Po
(гПа)
Тmin
(С)
Tmax
(С)
R
(мм)
R24
(мм)
S
(см)
З 3 16 км 8/8 1050 м +8.0 +6.0 87 +5 +5 979.2
З 2 16 км 10/2 1950 m
[Ac]
+8.0 +6.0 87 +6 +6 979.6
З 2 16 км 5/2 1800 m
[Ac]
+8.0 +5.0 81 +6 +6 979.6
ЮЗ 2 16 км 2/0 3300 m
[Ac]
+8.0 +5.0 81 +6 +6 979.2
З 2 16 км ясно +8.0 +5.0 81 +6 +6 979.2
штиль 0 16 км 2/0 2850 m
[Ac]
+8.0 +5.0 81 +7 +7 979.6
ЮЗ 3 16 км 8/0 2700 m
[Ac]
+6.0 +6.0 100 +2 +2 979.6
ЮЗ 3 16 км 2/0 2100 m
[Ac]
+6.0 +6.0 100 +2 +2 979.6
ЮЗ 2 16 км ясно +7.0 +6.0 93 +5 +5 979.6
ЮЗ 3 16 км ясно +8.0 +5.0 81 +5 +5 979.6
ЮЗ 3 16 км 2/0 2400 m
[Ac]
+7.0 +5.0 87 +4 +4 979.9
З 3 16 км ясно +7.0 +5.0 87 +4 +4 979.9
З 3
{6}
16 км ясно +7.0 +4.0 81 +4 +4 980.2
З 3 16 км ясно +7.0 +4.0 81 +4 +4 980.2
З 3 16 км ясно +7.0 +4.0 81 +4 +4 980.6
З 3 16 км ясно +7.0 +4.0 81 +4 +4 980.6
З 4 16 км ясно +7.0 +4.0 81 +3 +3 980.9
З 2
{5}
16 км ясно +7.0 +4.0 81 +5 +5 981.2
З 3 16 км ясно +7.0 +4.0 81 +4 +4 981.2
З 2
{5}
16 км ясно +7.0 +3.0 76 +5 +5 981.5
З 2
{5}
16 км ясно +7.0 +3.0 76 +5 +5 981.9
З 3 16 км ясно +7.0 +3.0 76 +4 +4 982.2
З 3 16 км ясно +8.0 +4.0 76 +5 +5 982.2
З 2
{5}
16 км ясно +8.0 +4.0 76 +6 +7 982.5
З 2 16 км ясно +9.0 +4.0 71 +7 +8 982.8
нст 2 16 км ясно +10.0 +5.0 71 +9 +9 983.2
СЗ 3 16 км ясно +10.0 +5.0 71 +8 +11 983.2
СЗ 4 16 км ясно +11.0 +5.0 66 +9 +11 983.2
СЗ 5 16 км ясно +11.0 +5.0 66 +8 +10 983.5
СЗ 4 16 км ясно +12.0 +5.0 62 +10 +15 983.5
СЗ 3
{7}
16 км ясно +13.0 +5.0 58 +12 +18 983.8
СЗ 4 16 км ясно +13.0 +5.0 58 +11 +16 984.1
СЗ 4 16 км ясно +14.0 +4.0 51 +13 +20 984.1
СЗ 3
{6}
16 км ясно +14.0 +4.0 51 +13 +22 984.1
СЗ 6 16 км ясно +15.0 +3.0 44 +14 +18 984.1
СЗ 4
{8}
16 км ясно +15.0 +3.0 44 +14 +24 984.1
С 5
{7}
16 км ясно +15.0 +3.0 44 +14 +21 984.1
СЗ 7 16 км ясно +15.0 +2.0 41 +13 +17 983.8
СЗ 5 16 км ясно +16.0 +3.0 42 +15 +24 983.8
СЗ 6 16 км ясно +16.0 +3.0 42 +15 +21 983.5
СЗ 5
{7}
16 км ясно +17.0 +3.0 39 +16 +25 983.5
СЗ 6
{9}
16 км ясно +17.0 +2.0 36 +16 +23 983.5
нст 3
{8}
16 км ясно +17.0 +1.0 34 +17 +31 опасность
простуды
983.2
З 5 16 км ясно +17.0 +2.0 36 +16 +25 982.8
СЗ 5
{9}
16 км ясно +18.0 +2.0 34 +18 +26 982.8
нст 3
{9}
16 км ясно +18.0 +2.0 34 +18 +31 опасность
простуды
982.5
З 5
{10}
16 км ясно +18.0 +2.0 34 +18 +26 982.2
З 4
{8}
16 км ясно +18.0 +2.0 34 +18 +26 982.2
Местоположение метеостанции Clyde A. Thomas Regional Airport: широта 38.2150 долгота -83.5874 высота над уровнем моря 319 м.
В архиве по умолчанию представлена погода в Морхеде за последние 1-2 суток. Обновление информации о фактической погоде в базе происходит ежечасно! Архивные данные за месяц целиком и за предыдущие месяцы Вы можете получить, выбрав интересующий диапазон дат из раскрывающегося списка и нажав кнопку "Ввод!".
Внимание! Архив погоды МЕТАР в базе сайта по станциям, не включенным в климатический монитор, хранится не более 60 дней. Нет смысла пытаться выбрать более раннюю дату.
*Определитесь, кто Вы:
Внимание! Время в таблицах - местное (без учета летнего времени). Для получения всемирного времени необходимо вычесть поправку, которая равна -5 ч.
Смотрите также архив погоды в соседних городах и на ближайших метеорологических станциях:
Партнеры нашего сайта:      
Пояснения к столбцам:
  • Ветер - указаны скорость ветра в м/с - средняя за 10 мин, порывы в срок и между сроками (в фигурных скобках) и направление, откуда дует ветер: С - северный,
  • СВ - северо-восточный, В - восточный, ЮВ - юго-восточный, Ю - южный, ЮЗ - юго-западный, З - западный, СЗ - северо-западный.
  • Видимость - горизонтальная дальность видимости в метрах или километрах. При видимости от 1 до 10 км при отсутствии осадков обычно наблюдается дымка, при ухудшении видимости до 1 км и менее - туман. В сухую погоду видимость может ухудшаться дымом, пылью или мглою.
  • Явления - указаны атмосферные явления, наблюдавшиеся в срок или в последний час перед сроком; фигурными скобками обозначены явления, наблюдавшиеся между сроками (за 1-3 часа до срока); квадратными скобками обозначены град или гололедные отложения с указанием их диаметра в мм.
  • Облачность - указаны через наклонную черту общая и нижняя облачность в баллах и высота нижней границы облаков в метрах; квадратными скобками обозначены формы облаков: Ci - перистые, Cs - перисто-слоистые, Cc - перисто-кучевые, Ac - высококучевые, As - высокослоистые, Sc - слоисто-кучевые, Ns - слоисто-дождевые, Cu - кучевые, Cb - кучево-дождевые. Подробнее классификацию облаков см. в Атласе облаков (PDF).
  • T - Температура воздуха - температура, измеренная на высоте 2 м над землей.
  • Td - Температура точки росы - температура, при понижении до которой содержащийся в воздухе водяной пар достигнет насыщения.
  • f - Относительная влажность воздуха - влажноcть воздуха, измеренная на высоте 2 м над землей.
  • Te - Эффективная температура - температура, которую ощущает одетый по сезону человек в тени. Характеристика душности погоды. При расчете учитывается влияние влажности воздуха и скорости ветра на теплоощущения человека.
  • Tes - Эффективная температура на солнце - температура, которую ощущает человек, с поправкой на солнечный нагрев. Характеристика знойности погоды. Зависит от высоты солнца над горизонтом, облачности и скорости ветра. Ночью, в пасмурную погоду, а также при ветре 12 м/с и более поправка равна нулю.
  • P - Атмосферное давление - приведенное к уровню моря атмосферное давление.
  • Po - Атмосферное давление - измеренное на уровне метеостанции атмосферное давление.
  • Tmin - Минимальная температура - минимум температуры воздуха на высоте 2 м над землей.
  • Tmax - Максимальная температура - максимум температуры воздуха на высоте 2 м над землей.
  • R - Количество осадков - Количество выпавших осадков за период времени, мм. При наведении курсора мыши на число - период времени, за который выпало указанное количество осадков.
  • R24 - Количество осадков - Количество выпавших осадков за 24 часа, мм.
  • S - Снежный покров - Высота снежного покрова, см. При наведении курсора мыши на число - состояние снежного покрова и степень покрытия местности в баллах.